Theta_e
298 297 296 295 295 295 294 293 291 290 290 290 291 291 291 291 290 289 288 288 288 288 287 287 286 286 285 285 285 285 286 286 286 286 286 286 286 285 285 284 284 284 283 283 283 283 283 283 282 282 282 282 282 282 281 281 281 280 280 280 279 279 278 277 276 276 278 278 278 278 278 277 278 278 277 277 277 277 276 276 275 275 275 275 275
296 296 295 294 294 294 294 292 291 289 289 290 290 290 290 290 290 289 288 288 287 287 287 287 286 286 285 285 285 285 286 286 287 287 287 286 286 285 285 285 284 284 283 283 283 283 283 282 282 282 282 282 282 282 281 281 280 280 280 279 279 278 277 277 276 275 276 277 277 277 277 277 277 277 277 276 277 276 276 276 275 275 275 275 274
295 295 294 293 293 293 292 291 290 289 289 289 289 289 290 290 289 288 288 287 287 287 287 287 286 286 285 285 285 285 286 286 287 287 287 287 286 286 285 285 284 284 283 283 283 283 282 282 282 282 282 282 281 281 281 280 280 280 280 279 279 278 277 277 276 275 276 276 276 276 277 277 276 276 276 276 276 276 275 275 275 275 275 274 274
294 293 292 292 292 292 291 290 289 289 289 288 288 288 289 289 289 288 288 287 287 287 287 286 286 285 285 285 285 286 286 286 287 287 287 287 286 286 285 285 284 283 283 283 283 283 282 282 282 282 282 281 281 281 281 280 280 280 279 279 278 278 278 277 276 276 275 275 276 276 276 276 276 276 276 276 276 275 275 275 275 274 274 274 274
293 292 291 291 291 290 290 289 288 288 288 288 288 288 288 289 288 288 287 287 287 287 287 286 286 285 285 285 286 286 286 286 286 286 286 286 286 285 285 284 284 283 283 283 283 282 282 282 282 282 282 281 281 281 281 280 280 280 279 279 278 278 277 277 276 276 275 274 275 276 276 275 275 275 275 275 275 274 275 275 274 274 274 274 274
292 291 291 290 290 290 289 288 288 288 288 287 287 288 288 289 288 287 287 287 287 287 286 286 285 285 285 285 285 286 286 286 286 286 287 286 286 285 284 284 283 283 283 283 282 282 282 282 281 281 281 281 281 281 281 280 280 279 279 278 278 277 277 277 276 275 275 274 274 275 275 275 275 275 275 275 274 274 275 274 274 273 273 274 274
291 291 290 290 289 289 288 288 288 288 287 288 288 288 288 288 288 287 287 287 287 287 286 286 285 285 285 285 285 286 286 286 286 286 286 286 286 286 285 284 283 283 283 283 282 282 282 281 281 281 281 281 281 281 280 280 279 279 279 278 277 277 277 276 276 275 274 274 274 274 274 274 274 275 275 275 274 274 274 274 273 273 273 273 273
291 290 289 289 289 289 288 288 288 288 288 288 288 288 288 288 287 287 287 286 287 287 286 286 285 285 285 285 285 285 285 286 286 286 286 286 286 286 285 284 284 284 283 283 282 282 281 281 281 281 281 281 281 280 280 279 279 278 278 277 277 277 276 276 275 275 274 274 274 274 274 274 275 275 275 274 274 274 274 273 273 273 273 273 272
291 290 289 289 289 289 288 288 288 288 288 288 288 288 287 287 287 286 286 286 286 286 286 285 285 285 284 284 285 285 285 286 286 286 287 286 286 286 285 284 284 284 283 283 282 282 281 281 281 281 281 280 280 280 279 279 278 278 277 277 276 276 276 275 275 274 274 274 274 274 274 274 275 275 275 274 274 274 273 273 273 273 273 272 271
290 290 289 289 289 289 289 289 288 288 288 288 288 287 287 287 287 286 286 286 285 285 285 285 285 285 284 284 284 285 285 285 286 286 286 286 286 286 285 284 285 284 284 283 282 282 282 281 281 281 280 280 280 279 279 279 278 277 277 276 276 276 275 275 275 274 274 274 274 274 274 275 275 275 274 274 274 273 273 273 273 272 271 271 271
290 290 290 290 290 289 289 289 289 288 288 288 287 287 287 287 286 286 286 285 285 285 285 285 285 285 284 284 284 285 285 285 286 286 286 286 286 286 285 285 285 285 284 283 283 282 282 281 281 281 280 280 280 280 279 278 277 277 277 277 276 276 275 275 275 275 274 274 274 275 275 275 275 274 274 274 273 273 273 273 272 272 271 270 271
291 290 290 290 290 289 289 289 289 288 288 287 287 287 286 286 286 286 286 286 285 285 285 285 285 285 284 284 285 285 285 285 286 285 285 286 288 287 286 286 285 285 284 283 283 283 282 281 281 281 280 280 280 279 279 278 277 277 277 277 276 276 276 276 275 275 275 275 275 275 276 276 275 274 274 273 273 273 273 273 272 271 270 270 270
291 290 290 290 289 289 289 289 288 288 287 287 287 286 286 286 286 286 286 286 285 285 285 285 285 285 284 284 285 285 285 286 285 285 286 287 289 288 287 286 286 285 284 283 283 283 282 281 281 280 280 280 279 279 278 277 277 277 277 276 276 276 276 276 276 276 276 276 276 276 276 275 274 274 274 273 273 273 273 272 271 270 270 270 269
290 290 290 289 289 289 289 288 288 287 287 287 287 286 286 285 286 286 286 285 285 285 285 285 285 285 285 285 285 285 285 286 285 285 287 288 289 288 287 286 285 285 285 284 284 283 282 281 281 281 281 280 279 278 278 277 277 277 277 276 276 276 276 275 276 276 276 276 276 276 275 274 274 274 273 273 273 273 272 271 271 270 269 269 268
289 289 289 289 289 288 288 288 288 287 287 287 286 286 285 285 285 285 285 285 285 286 285 285 285 285 285 285 285 285 285 285 285 286 288 289 289 288 287 286 286 285 285 284 284 283 282 281 281 281 281 280 279 278 277 277 277 277 276 276 276 275 275 275 275 275 275 275 275 275 274 274 274 274 274 274 273 273 272 271 270 269 269 268 268
289 289 289 289 289 288 288 288 288 287 287 286 286 286 285 285 285 285 285 285 285 285 285 285 286 286 285 285 285 285 285 285 285 286 289 289 289 288 287 286 286 286 285 284 284 283 282 281 281 282 281 280 279 278 277 277 277 276 276 276 275 275 275 275 275 275 275 275 275 275 275 275 275 275 275 274 273 272 271 270 269 269 268 267 267
289 289 288 288 288 288 288 288 287 287 287 286 286 286 286 286 285 285 285 285 285 285 285 286 286 285 285 285 285 285 285 285 285 288 289 290 288 287 286 286 286 285 285 284 284 283 283 282 282 282 282 281 279 278 277 276 276 276 276 275 275 274 275 275 274 274 275 275 276 276 276 276 276 275 274 273 272 271 270 269 269 268 267 266 266
289 289 289 289 288 288 288 288 287 287 286 286 286 286 286 286 286 286 286 286 286 286 285 285 285 284 284 285 285 285 285 285 286 289 290 290 288 286 285 285 284 284 284 284 284 284 283 283 283 282 282 282 280 279 277 276 276 275 275 275 274 274 275 275 274 274 275 275 276 276 276 275 275 274 273 272 271 271 270 269 268 268 267 266 265
289 289 289 289 288 288 288 287 287 287 287 287 287 287 287 287 287 287 286 286 285 285 284 283 283 283 284 284 285 285 285 285 287 289 290 290 288 286 284 283 282 282 283 284 284 284 283 284 284 283 283 283 281 280 278 277 276 275 275 274 274 274 275 275 274 274 274 275 275 275 275 274 274 273 272 271 270 270 270 269 268 267 267 265 265
289 289 289 289 288 288 288 288 288 288 288 288 288 288 287 287 286 286 285 285 284 283 282 282 282 282 283 284 284 285 285 285 287 289 289 289 287 284 282 282 282 282 283 283 283 283 283 284 284 284 284 283 282 281 279 277 276 276 275 274 274 275 275 275 274 274 275 275 275 275 274 274 273 272 271 270 270 270 269 268 267 267 267 265 265
289 289 289 289 289 288 288 288 288 288 288 288 288 287 287 286 286 285 284 284 283 282 282 282 282 282 282 283 283 283 284 284 286 288 288 288 287 284 282 282 282 282 282 282 282 282 282 283 284 284 283 283 282 281 279 278 277 276 275 275 275 275 275 274 274 275 275 275 275 275 274 273 272 272 271 270 270 269 269 268 267 267 267 266 265
289 289 289 288 288 288 288 288 288 288 288 287 287 287 286 286 285 284 284 283 282 282 282 281 282 282 281 281 282 282 283 283 285 286 286 286 285 283 282 282 282 281 281 281 281 281 281 282 282 282 282 282 281 280 279 278 277 277 276 276 276 276 275 276 276 276 276 276 275 275 274 273 272 272 272 271 270 269 268 268 267 267 267 266 266
289 288 288 288 288 288 288 288 288 288 287 287 287 286 285 285 284 284 283 283 282 282 281 281 281 281 281 281 281 282 282 283 284 285 285 284 283 282 280 281 281 281 280 280 281 281 281 281 281 281 280 280 280 279 278 277 277 277 277 277 277 277 277 277 277 276 276 275 275 274 273 273 272 272 272 271 270 268 268 267 267 267 267 266 266
289 288 288 288 288 288 288 288 287 287 287 286 286 285 285 284 284 283 283 283 282 282 281 281 281 281 281 281 282 282 283 283 283 284 284 283 282 281 280 280 280 281 281 281 281 280 280 280 280 279 279 278 278 278 278 277 276 276 277 278 278 278 278 278 277 276 276 275 274 273 273 273 272 272 271 270 269 268 268 267 267 266 266 266 266
288 288 288 288 288 288 288 287 287 287 287 286 286 285 285 284 283 283 283 282 282 282 281 281 281 281 281 281 282 282 283 283 283 283 283 282 281 281 280 280 279 280 281 281 281 281 280 280 280 279 278 278 277 277 277 276 276 276 277 278 278 277 278 278 277 276 275 274 273 273 273 272 272 271 271 270 268 267 267 267 266 266 266 266 266
288 288 288 288 288 287 287 287 286 286 286 286 286 285 285 285 284 283 283 282 282 282 281 281 281 280 281 281 282 282 282 282 282 282 281 281 280 280 280 280 279 279 279 280 280 280 280 280 279 279 278 278 277 277 276 276 276 276 276 277 277 277 277 277 277 275 274 274 273 273 273 272 271 271 270 269 268 267 267 266 266 266 266 266 266
289 288 288 288 287 287 287 287 286 286 286 285 285 285 285 285 284 283 283 282 282 281 281 281 280 280 280 281 282 281 281 280 280 280 280 280 280 279 279 279 279 278 278 278 279 279 279 279 279 279 278 278 277 277 276 276 276 275 275 276 277 277 277 277 276 275 274 274 273 273 272 271 271 270 270 269 268 267 266 265 265 265 265 265 265
289 288 288 288 287 287 287 287 286 286 285 285 285 285 284 284 284 284 284 284 283 282 282 281 281 281 281 281 281 280 280 280 280 280 280 279 279 279 279 279 278 278 278 278 278 278 278 278 278 278 278 278 277 277 276 276 276 275 275 275 276 276 276 276 275 275 274 273 273 272 272 271 270 270 269 268 268 267 266 265 264 264 264 264 264
288 288 287 287 287 287 286 286 286 286 285 285 285 284 284 285 284 284 284 284 284 283 283 283 283 283 282 281 280 280 280 281 281 280 280 279 279 278 278 278 278 278 278 278 277 277 276 276 276 277 277 277 277 276 276 276 276 276 275 274 275 275 275 274 274 274 274 273 272 272 271 271 270 270 269 268 267 266 265 264 264 264 263 263 263
287 287 287 287 286 286 286 285 285 285 285 285 284 284 284 284 284 284 284 283 283 283 282 282 282 282 281 281 281 280 281 281 280 279 278 278 278 278 277 277 277 277 277 276 276 275 274 274 275 275 276 276 276 276 276 275 275 275 275 275 275 274 274 274 274 273 273 272 272 271 270 270 269 269 268 267 266 265 264 264 263 263 263 262 262
287 287 286 286 286 286 286 285 285 285 284 284 284 284 283 283 282 283 283 282 282 282 282 282 282 281 281 281 281 280 280 279 279 278 277 277 277 277 277 276 276 276 276 276 275 274 273 274 274 274 275 275 275 275 275 275 275 275 274 274 274 273 273 273 273 273 272 271 270 270 269 269 268 268 267 266 265 264 263 263 263 263 262 262 262
289 288 287 287 287 286 286 285 285 284 284 283 283 283 282 282 282 282 282 282 282 282 282 281 281 281 280 280 280 279 279 279 278 277 277 277 277 277 277 277 277 277 277 276 276 274 273 273 274 274 274 274 274 274 274 274 274 274 273 273 273 273 273 272 272 271 271 270 269 269 268 268 268 267 266 265 264 263 263 263 263 263 262 262 262
289 289 288 288 287 287 286 286 285 285 284 284 283 283 282 282 282 282 282 282 282 282 281 281 280 280 279 279 278 278 278 278 277 277 277 277 277 277 277 277 277 277 277 277 277 276 274 274 273 273 273 274 273 273 273 273 273 273 273 273 272 272 272 271 271 270 270 269 268 268 268 267 267 266 265 265 264 263 263 263 262 262 261 261 261
288 288 288 288 287 287 286 286 285 285 285 284 284 283 283 283 283 283 282 281 281 281 280 280 279 278 278 278 278 278 278 278 278 277 277 277 277 276 277 277 277 277 277 277 277 276 275 274 274 273 273 273 273 273 273 273 273 273 272 272 272 271 271 270 270 269 269 268 268 267 267 266 266 265 265 264 263 262 262 262 262 261 261 261 261
287 287 286 286 286 286 286 285 285 285 284 284 284 283 283 283 282 282 281 281 280 279 279 279 278 278 277 277 276 276 277 277 277 277 277 277 277 277 276 276 276 276 276 276 276 276 276 275 274 274 274 274 273 273 273 273 272 272 272 271 271 270 270 269 269 268 268 267 267 267 266 266 265 265 264 263 262 262 262 262 261 260 260 260 260
285 285 285 285 284 284 284 284 283 283 283 283 282 282 281 281 280 280 279 278 278 278 278 277 277 277 276 275 275 275 276 276 276 277 277 277 277 277 277 276 276 276 276 275 275 275 275 275 274 274 273 273 273 273 272 272 272 271 271 270 270 269 269 268 268 268 267 267 266 266 265 265 264 264 263 262 262 261 261 261 261 260 260 260 260
284 284 283 283 283 283 282 282 281 281 281 280 280 279 279 279 278 278 277 277 276 276 276 276 276 275 275 275 274 274 274 275 275 275 275 275 276 276 276 276 276 276 275 275 275 274 274 274 273 273 272 272 271 271 271 271 270 270 269 269 268 268 268 267 267 266 266 266 265 265 264 264 263 263 262 261 261 261 261 261 260 260 260 260 260
283 282 282 282 281 281 281 280 280 279 279 279 278 278 277 277 277 276 276 276 275 275 274 274 274 274 274 273 273 273 273 273 273 274 274 274 274 275 275 275 274 274 274 273 273 273 273 272 272 271 271 270 270 270 269 269 269 268 268 267 267 267 266 266 266 265 265 265 264 264 263 263 262 262 261 261 261 261 261 261 260 260 260 259 259
281 281 280 280 280 279 279 279 279 278 278 277 277 277 276 276 276 275 275 274 274 273 273 273 272 272 272 271 271 271 271 271 271 272 272 272 273 273 273 273 272 272 272 271 271 271 270 270 270 270 269 269 269 268 268 267 267 267 266 266 266 265 265 265 264 264 264 264 263 263 262 262 262 261 261 261 261 261 261 261 260 260 259 259 259
280 279 279 279 279 278 278 278 277 277 276 276 276 275 275 274 274 273 273 272 272 272 271 271 271 270 269 269 269 269 269 269 270 270 270 271 271 271 271 271 270 270 270 269 269 269 268 268 268 268 268 267 267 267 266 266 266 265 265 265 264 264 264 264 264 263 263 263 263 262 262 262 261 261 261 261 261 261 260 260 260 260 259 259 258
279 279 278 278 278 277 277 276 276 275 275 274 274 273 273 272 272 272 271 271 270 270 270 269 269 268 268 268 268 268 268 268 268 268 268 268 268 269 268 268 268 268 267 267 267 267 266 266 266 266 266 266 265 265 265 265 264 264 264 264 264 264 264 263 263 263 263 263 262 262 262 261 261 261 261 261 261 260 260 260 260 259 259 259 258
278 278 277 277 276 276 275 275 274 274 273 273 272 272 271 271 270 270 270 269 269 269 268 268 268 268 267 267 267 267 267 267 267 266 267 267 267 267 267 267 267 266 266 265 265 265 265 265 265 265 265 264 264 264 264 264 264 264 264 263 263 263 263 263 263 263 263 263 262 262 261 261 261 261 261 261 260 260 260 259 259 259 259 259 259
277 276 276 275 275 274 274 273 273 272 272 271 271 270 270 270 269 269 269 268 268 267 267 267 267 267 267 266 266 266 266 266 266 266 266 266 266 266 266 266 266 265 265 264 264 264 264 264 264 264 264 264 263 264 264 263 263 263 263 263 263 263 263 263 263 263 263 262 262 261 261 261 261 261 261 261 260 260 259 259 259 259 259 259 258
275 275 274 274 273 273 273 272 271 271 270 270 269 269 269 268 268 268 267 267 267 266 266 266 266 266 266 266 265 265 265 265 265 265 265 265 265 265 265 264 264 264 264 263 263 263 263 263 263 263 263 263 263 263 263 263 263 263 263 263 263 263 263 263 263 262 262 261 261 261 261 261 261 261 260 260 260 259 259 259 259 259 258 258 258
274 274 273 273 272 272 271 270 270 269 269 268 268 268 267 267 267 267 267 266 266 266 266 266 265 265 265 265 265 265 265 265 264 264 264 264 264 264 263 263 263 263 263 263 263 263 263 263 263 263 263 263 263 263 263 263 263 263 263 263 263 263 263 262 261 261 261 261 261 261 261 261 261 260 260 260 260 259 259 259 259 258 258 258 258
273 273 272 272 271 270 269 269 269 268 268 268 267 267 267 266 266 266 266 266 265 265 265 265 265 264 264 264 264 264 264 264 264 263 263 263 263 263 263 263 263 263 263 263 263 263 263 263 263 263 263 263 262 262 262 262 262 262 262 262 262 262 262 261 261 261 261 260 260 260 260 260 261 260 260 260 260 259 259 259 258 258 257 257 257
272 271 271 270 270 269 268 268 268 267 267 267 266 266 266 266 266 265 265 265 264 264 264 264 264 264 264 264 263 263 263 263 262 262 262 262 262 262 262 262 262 262 262 262 262 262 262 263 263 263 263 263 263 262 262 262 262 262 262 262 262 262 261 261 261 261 261 260 260 260 260 261 260 260 260 260 259 259 258 258 258 257 257 257 257
270 270 269 269 269 268 268 267 267 266 266 266 266 266 265 265 265 264 264 264 263 263 263 263 263 263 263 263 262 262 262 262 262 262 262 262 262 262 262 262 262 262 262 262 262 262 262 262 262 263 263 263 263 263 262 262 262 262 262 262 261 261 261 261 261 261 260 260 260 260 260 260 260 260 260 259 259 258 258 258 257 257 257 256 257
269 269 269 268 268 267 267 266 266 266 265 265 265 265 264 264 264 263 263 263 263 263 262 262 262 262 262 262 262 261 261 262 262 262 262 262 262 262 262 262 262 262 262 262 262 262 262 262 262 262 262 262 262 262 262 262 262 262 261 261 261 261 261 261 261 260 260 260 260 260 260 260 260 259 259 259 258 258 258 257 257 257 256 256 257
268 268 267 267 267 266 266 266 265 265 264 264 264 264 263 263 263 263 263 263 263 262 262 262 262 262 262 262 262 262 262 262 262 262 262 262 262 262 262 262 262 262 262 262 262 262 262 262 262 262 262 262 262 262 262 262 261 261 261 261 261 261 261 261 261 260 260 260 260 260 260 260 259 259 259 259 258 258 257 257 257 257 257 257 257
267 267 266 266 266 265 265 265 264 264 264 264 263 263 263 263 263 262 262 263 262 262 262 262 262 262 262 262 262 262 262 262 262 262 262 262 262 262 262 262 262 262 262 262 262 262 262 262 262 262 262 262 262 261 261 261 261 261 261 261 261 261 261 261 261 261 261 261 260 260 260 260 260 259 259 259 258 258 257 257 257 257 257 257 257
Wind_Speed
38 38 38 38 38 39 40 40 41 42 43 43 44 43 42 41 39 38 37 36 35 34 32 30 29 29 28 27 25 23 22 21 19 18 16 14 13 11 11 11 10 10 10 10 9 8 8 8 8 8 8 7 7 7 7 8 8 8 9 9 9 9 9 8 10 15 18 15 14 18 20 22 25 26 28 30 29 28 29 29 28 27 27 29 29
38 38 39 39 39 39 40 41 41 42 42 43 43 43 42 41 39 38 38 37 35 33 32 31 30 29 28 26 24 23 22 21 20 18 17 15 14 13 13 13 13 12 12 11 10 9 9 9 9 9 8 8 8 9 9 10 10 10 10 10 10 10 10 10 10 13 18 18 17 18 20 22 25 27 28 29 30 29 31 30 28 26 26 27 28
39 39 39 39 39 39 40 41 42 42 43 43 43 42 41 41 40 39 38 37 35 33 32 31 31 30 28 26 25 23 22 20 19 18 17 15 14 14 14 14 14 13 12 11 10 10 10 10 10 10 9 9 10 11 11 12 12 12 12 12 12 11 11 12 11 12 16 20 19 19 22 24 26 27 28 28 27 29 31 30 27 24 24 25 26
38 38 39 39 39 40 40 41 42 42 42 42 42 41 40 40 40 38 38 37 36 34 33 32 31 30 29 27 25 24 22 21 19 18 16 15 14 14 14 14 14 13 12 12 11 12 12 11 11 11 11 11 12 12 13 14 14 14 14 14 13 13 12 13 13 12 15 19 21 22 23 24 26 27 28 27 26 28 29 28 26 24 24 24 24
38 38 38 38 39 39 40 41 41 42 41 41 40 40 40 40 39 38 38 38 36 35 34 33 32 31 29 27 26 24 22 21 20 18 16 15 15 14 14 14 14 13 12 12 12 12 12 12 12 12 13 13 14 14 15 15 15 15 15 15 14 14 14 13 13 13 15 18 23 24 23 24 26 27 24 24 28 31 28 25 23 23 25 25 24
38 38 38 38 38 39 39 40 41 41 40 39 39 39 40 40 39 39 38 38 37 36 35 34 33 31 30 28 26 25 23 21 20 19 17 16 15 15 14 14 14 13 13 13 13 13 13 13 13 14 15 15 15 15 16 16 16 16 16 16 16 15 14 14 14 14 15 17 19 22 24 24 25 25 20 19 26 29 29 28 27 23 21 24 28
37 38 38 37 38 39 39 39 40 40 39 38 38 39 40 40 40 39 38 38 38 37 36 35 33 31 30 28 27 25 24 22 21 19 17 16 16 16 15 15 15 14 14 14 14 14 14 14 15 15 16 16 16 16 16 17 17 17 17 17 16 16 15 15 14 14 15 16 16 19 22 22 21 21 19 19 22 20 21 28 34 31 24 23 28
37 37 37 37 37 38 38 38 38 38 38 38 38 38 39 39 39 39 38 38 38 37 36 35 33 32 30 29 27 25 24 23 22 20 18 17 16 16 16 16 16 15 15 15 16 16 16 16 16 17 17 17 17 17 17 17 17 18 18 18 17 17 16 15 14 14 14 15 16 17 19 20 18 17 18 20 20 16 17 23 29 30 30 30 29
37 36 36 37 37 37 36 37 37 37 38 38 39 39 39 39 38 38 37 37 37 37 36 35 33 32 31 29 27 26 25 24 22 20 19 17 16 16 17 17 17 17 17 17 17 17 17 17 18 18 18 18 18 17 17 17 18 19 19 18 18 17 17 15 15 15 14 14 16 16 16 16 15 15 19 18 15 18 22 23 21 22 28 34 32
37 36 36 36 36 35 36 37 37 38 38 39 40 39 39 38 38 37 37 37 36 36 35 35 34 33 31 29 28 27 26 25 23 21 19 17 15 16 17 18 18 18 19 19 19 19 19 19 19 19 20 20 19 18 18 18 20 20 19 18 18 17 16 16 15 14 14 14 15 15 16 15 13 15 19 17 16 21 23 18 17 21 24 30 31
36 37 37 36 35 35 36 37 37 38 39 39 39 39 39 39 38 37 37 37 36 36 36 35 35 34 32 30 29 28 27 26 24 22 20 17 15 16 18 19 20 20 21 21 21 21 21 21 21 21 21 21 20 20 20 20 19 19 18 18 18 17 16 16 16 15 14 15 16 16 15 15 14 14 17 17 19 21 18 13 16 19 19 20 23
35 36 36 35 35 35 36 37 37 38 38 38 38 39 39 38 38 38 38 38 37 36 36 36 35 34 32 31 30 30 29 27 25 23 21 18 16 18 21 22 22 22 23 23 22 22 23 22 22 23 23 22 22 21 21 21 19 18 18 17 17 17 17 16 17 16 15 15 17 16 15 16 16 14 15 19 21 19 16 17 18 17 17 16 17
35 34 34 34 35 35 36 36 36 37 37 37 37 37 38 38 39 39 39 38 38 37 36 36 36 35 34 33 32 31 30 28 26 24 21 18 18 20 23 24 25 25 25 25 25 24 25 25 25 25 24 23 23 23 23 22 22 22 22 21 20 19 19 18 18 17 16 16 18 18 17 17 18 17 17 19 20 18 18 22 21 17 18 18 18
33 32 33 33 34 34 34 35 34 34 35 36 37 37 38 38 39 39 39 38 38 37 37 37 37 36 36 35 34 33 32 30 28 25 22 19 20 22 25 26 26 27 27 27 27 27 27 27 27 26 25 24 24 24 24 24 23 24 24 24 25 24 22 21 20 19 18 18 20 22 20 19 19 19 18 17 16 17 19 22 22 20 22 23 25
31 31 32 33 33 33 34 34 34 34 35 36 37 37 37 37 37 38 38 39 39 39 39 39 39 38 38 37 36 35 34 31 29 26 23 21 22 25 28 28 29 30 31 30 30 30 29 29 28 27 26 25 25 25 25 24 24 25 25 26 26 25 24 23 22 21 21 20 22 22 20 19 19 18 17 15 15 17 19 20 22 25 27 29 30
31 31 32 33 33 34 34 35 35 35 35 36 36 36 37 37 37 37 37 38 38 38 39 40 40 40 40 39 38 38 36 33 30 26 23 23 25 28 30 32 32 33 34 33 32 32 32 31 30 28 27 27 26 25 25 25 24 25 26 26 26 25 25 24 22 21 21 20 21 20 18 18 17 16 15 14 15 18 21 23 24 25 27 29 31
31 31 31 31 32 33 34 34 34 34 34 35 35 35 36 36 36 36 37 37 38 39 41 41 42 42 42 41 41 40 38 34 30 26 24 25 28 31 34 35 36 37 36 34 34 35 35 33 31 30 29 28 26 25 24 24 25 26 26 26 26 27 27 26 24 23 21 20 20 19 17 18 18 17 17 18 18 20 22 24 24 24 23 23 25
31 31 31 31 32 32 33 33 32 32 33 34 34 34 34 35 35 37 38 39 40 41 42 41 42 43 43 43 42 41 38 35 31 27 26 27 31 34 36 37 38 38 37 36 36 36 36 35 33 31 31 30 28 25 22 23 25 26 27 26 26 28 29 26 23 22 19 19 20 19 18 20 22 23 23 23 22 21 23 24 24 24 22 19 20
30 31 31 31 31 31 31 32 32 32 33 33 34 34 34 35 36 37 39 39 40 40 39 40 41 42 42 42 41 40 38 36 33 30 29 30 33 36 36 37 38 39 39 38 38 38 38 37 35 33 32 31 29 26 23 23 26 28 28 26 27 30 30 25 22 21 20 20 21 21 21 23 24 25 25 24 24 24 25 25 23 22 23 21 20
28 29 28 29 30 31 32 32 33 33 33 34 34 34 35 35 35 35 37 37 36 36 36 37 38 39 40 41 41 41 40 39 37 34 32 32 35 36 36 38 40 41 40 39 39 39 39 39 38 36 34 33 31 29 26 25 26 28 29 29 31 33 29 24 21 21 21 21 22 23 23 22 22 23 24 24 25 25 25 23 22 21 21 22 21
27 27 28 29 30 31 32 32 33 33 33 33 33 33 33 33 33 34 35 35 34 33 34 35 36 38 38 39 40 41 41 41 39 36 33 33 35 36 38 41 42 42 40 39 40 40 41 41 41 39 36 34 32 30 28 26 25 27 30 32 33 31 26 23 22 21 22 24 24 24 23 22 21 22 24 25 24 23 22 21 20 20 20 21 22
25 26 27 28 29 30 30 31 31 31 31 31 30 31 31 31 32 32 32 32 32 32 33 33 34 36 36 36 38 39 40 41 40 38 35 34 35 37 39 41 41 40 39 40 41 43 43 43 42 41 39 37 34 32 29 26 24 26 29 30 29 26 24 24 25 24 25 26 25 24 23 22 22 23 24 24 23 21 21 21 20 20 20 20 20
24 25 26 27 27 28 29 29 29 29 29 29 29 29 29 29 29 30 30 30 31 32 32 32 32 33 34 35 37 38 39 40 40 39 37 35 36 37 38 38 38 38 40 43 44 44 44 43 43 41 39 38 36 33 30 26 25 27 28 27 26 25 24 26 27 27 27 27 25 24 23 22 22 23 24 24 22 20 20 21 21 20 20 20 20
22 23 24 24 25 25 26 26 26 27 27 27 27 27 27 27 28 28 29 29 30 30 31 31 31 32 33 36 38 39 39 41 41 40 39 37 36 37 38 38 37 35 37 42 44 44 44 44 43 41 39 37 36 34 31 27 26 27 27 26 26 25 26 29 29 27 27 26 25 24 24 22 21 22 23 23 22 21 21 22 21 20 20 20 20
20 20 21 22 22 22 23 23 23 24 25 26 26 27 27 27 27 27 28 29 29 30 30 30 31 32 33 35 38 39 38 39 40 40 39 38 37 38 39 40 38 35 35 39 41 40 41 42 41 39 38 36 34 32 30 28 27 26 26 26 25 25 27 29 28 27 27 26 25 24 23 21 20 21 23 23 22 22 22 22 21 20 19 20 21
18 19 19 19 20 20 20 21 22 23 23 24 25 26 27 27 27 28 28 29 29 29 29 29 30 31 32 35 37 37 35 36 37 37 36 35 35 36 36 38 39 38 39 41 39 36 35 36 36 36 35 34 32 31 31 30 28 27 26 25 25 27 29 29 28 28 28 26 24 24 22 20 20 21 22 23 23 22 22 22 22 20 18 19 21
17 18 18 18 19 19 20 21 22 23 23 24 25 25 26 26 27 27 28 29 29 30 29 29 29 30 32 35 35 34 32 32 33 33 33 32 32 32 33 34 35 36 39 41 41 39 37 34 33 32 31 31 31 31 31 30 28 27 25 24 26 28 29 28 28 28 27 25 24 23 21 20 20 21 22 22 23 22 21 22 21 20 18 18 20
17 17 17 18 18 19 20 20 21 23 24 24 25 25 26 26 27 28 29 29 29 29 29 30 31 31 32 33 31 30 30 31 31 31 31 30 29 28 29 30 31 32 34 36 37 38 39 38 35 32 30 28 29 29 29 28 28 27 25 25 27 29 28 27 27 27 26 25 24 23 21 20 21 21 21 23 23 22 21 20 20 19 17 15 16
16 16 17 17 18 18 19 20 20 21 22 23 24 24 24 25 26 27 27 27 27 27 27 28 29 29 29 29 28 28 30 31 29 28 26 25 25 25 25 26 26 27 28 28 29 33 35 35 34 33 31 29 29 29 29 28 28 28 26 26 28 29 29 28 28 28 27 26 25 23 22 21 21 21 21 22 23 21 19 19 19 18 16 14 15
16 16 17 17 17 18 18 19 19 19 20 21 22 22 22 22 23 24 24 24 25 25 26 27 27 26 27 28 28 28 30 30 27 26 26 25 25 25 25 23 23 23 22 21 24 29 30 30 30 30 29 28 29 27 26 25 26 27 27 27 28 28 28 28 28 28 27 26 25 24 22 20 20 19 20 21 21 20 18 18 17 16 15 14 15
16 16 15 15 15 16 16 17 17 17 18 18 19 20 20 20 21 22 23 23 24 24 24 25 25 25 27 28 28 28 28 27 26 25 24 23 21 20 20 19 19 19 18 18 22 26 26 25 26 26 24 25 25 24 22 21 23 24 24 24 25 25 26 26 27 27 27 26 25 22 19 18 18 19 19 20 20 20 18 17 16 16 16 15 15
13 13 13 12 12 13 13 14 15 16 16 16 17 18 19 19 19 20 21 21 22 22 23 23 24 24 25 26 25 25 25 23 22 21 19 18 16 16 17 17 17 17 16 18 22 25 23 23 23 22 21 22 23 23 22 22 22 22 22 22 23 24 25 26 26 25 25 24 22 19 17 16 17 18 19 19 20 20 19 18 17 17 17 16 16
10 10 11 11 11 11 12 13 13 14 15 15 15 16 17 18 18 18 17 18 19 19 20 21 20 20 20 20 19 20 20 19 18 17 16 15 14 14 15 16 16 16 16 18 22 23 21 21 22 21 20 21 22 23 23 23 23 23 23 23 23 22 22 22 21 20 20 19 18 16 15 16 17 18 19 19 19 19 19 18 18 16 16 16 17
8 9 9 9 10 10 10 11 11 12 12 13 14 14 15 15 16 16 15 16 17 17 17 18 17 16 16 16 15 16 16 16 16 16 15 14 14 13 13 14 14 14 15 18 21 22 22 23 24 24 24 24 23 23 23 23 23 23 23 22 21 20 19 18 17 17 16 15 15 14 15 16 17 18 20 20 19 19 19 18 17 16 15 16 17
9 9 8 8 8 8 8 8 9 9 10 11 11 12 12 13 14 14 15 15 16 15 14 14 14 15 15 15 14 14 14 14 15 15 15 16 15 13 13 14 15 15 16 17 19 19 19 19 20 21 22 22 22 22 21 20 20 19 18 18 16 15 14 14 14 14 13 13 14 15 16 17 17 19 20 20 18 18 18 17 16 15 15 16 17
8 8 8 7 7 6 6 6 7 7 7 8 9 9 10 11 12 12 13 13 13 14 13 12 11 12 14 15 15 13 12 11 11 12 13 15 15 14 15 16 16 16 16 18 18 18 16 14 12 12 12 13 15 15 15 14 14 13 12 12 11 11 12 13 13 14 14 15 16 17 17 18 19 18 18 18 18 17 17 16 16 15 15 15 16
7 7 7 7 6 6 6 6 6 6 6 7 7 8 8 9 9 10 10 11 11 12 12 12 11 10 11 13 13 13 13 11 10 11 13 14 13 14 15 16 16 16 15 15 16 17 16 15 12 10 9 8 8 9 9 10 10 10 10 11 11 12 12 13 13 15 15 16 16 17 18 18 18 16 16 17 17 16 16 15 15 15 15 15 15
8 8 7 7 7 6 6 6 5 5 5 5 5 6 6 6 7 8 8 9 10 11 11 11 11 10 10 10 11 12 12 12 12 13 13 13 12 13 13 14 14 14 14 14 13 13 13 13 12 12 11 10 10 10 10 10 11 11 12 12 12 13 13 13 14 15 16 16 16 16 16 16 15 14 15 16 16 16 16 16 16 16 16 16 16
8 7 7 6 5 5 4 4 3 3 3 3 3 4 5 5 6 6 7 8 8 9 9 10 10 9 9 9 9 10 10 11 13 14 14 14 14 15 15 14 14 13 13 14 13 13 13 13 14 14 14 14 14 13 13 13 14 14 13 13 13 13 13 14 14 14 15 15 15 14 14 14 14 13 14 15 15 16 16 16 16 16 17 17 16
7 6 5 4 4 3 3 2 2 2 2 2 2 2 3 3 4 5 5 6 7 7 8 8 8 8 8 8 8 9 10 10 11 12 13 14 14 15 15 15 15 15 15 15 15 16 16 16 16 16 15 15 15 15 14 14 13 13 13 12 12 13 13 13 14 14 14 14 13 13 14 14 13 13 13 14 15 15 16 17 17 17 16 16 16
6 6 5 4 4 3 3 3 2 2 1 1 0 0 1 1 2 3 4 5 5 5 6 6 6 6 6 6 6 7 8 9 9 10 11 12 12 13 14 14 14 15 15 16 16 16 16 16 15 15 15 14 14 13 13 12 12 12 12 12 13 14 14 14 13 13 13 13 13 13 13 13 12 12 13 14 14 15 16 17 17 16 16 16 17
6 6 6 5 5 4 4 4 4 3 2 2 1 1 1 0 1 2 2 3 4 4 5 5 5 5 5 3 3 4 7 7 8 9 10 10 11 12 12 13 13 14 14 14 14 15 14 14 14 13 13 12 12 11 11 11 11 12 12 13 13 14 14 13 13 13 13 13 13 13 12 12 12 13 14 14 15 16 17 17 17 17 17 17 17
7 7 7 6 6 6 5 5 5 4 3 3 2 2 1 1 1 1 2 2 3 4 4 4 5 5 4 4 5 7 8 8 8 9 10 11 11 12 12 12 13 13 13 14 14 14 13 13 13 12 12 11 11 10 10 10 11 11 12 12 13 14 14 13 13 12 12 13 12 12 12 12 13 14 14 15 16 16 17 18 18 17 18 17 16
8 8 8 7 7 7 6 6 5 5 4 3 3 2 1 0 0 1 1 2 2 3 4 4 5 5 5 6 8 9 9 10 10 11 12 12 13 13 13 14 14 14 13 13 13 13 13 13 12 12 11 11 10 10 10 10 11 11 12 12 13 14 14 13 12 11 12 12 12 13 13 13 14 15 15 16 16 17 17 18 18 18 17 16 16
9 8 8 8 8 7 7 6 5 5 4 3 2 2 1 0 0 1 2 2 3 4 4 5 6 6 7 7 8 9 10 11 12 12 13 13 13 13 14 14 14 13 13 12 12 12 12 12 12 12 11 11 10 10 10 11 11 12 12 13 14 14 13 12 12 11 12 13 14 14 15 15 15 16 16 16 16 17 18 18 17 17 17 16 15
9 9 9 9 9 8 7 6 5 5 4 3 2 2 1 1 1 1 2 3 3 4 5 6 6 7 8 9 9 10 11 12 12 13 13 13 12 12 13 12 12 12 12 12 12 12 12 13 13 13 13 12 12 12 12 12 13 13 13 14 14 14 13 13 13 13 14 14 15 15 16 16 16 16 16 17 17 17 18 18 17 17 16 15 14
10 10 10 9 9 8 7 6 5 4 4 3 2 1 0 0 1 2 3 3 4 5 6 6 7 8 9 10 10 11 11 11 11 12 12 12 11 11 12 12 13 13 13 13 13 13 13 14 14 15 15 15 14 14 14 14 14 14 14 14 14 14 13 13 14 14 14 14 15 16 16 17 17 17 17 17 17 17 18 17 17 16 15 15 15
10 10 9 8 8 7 6 5 5 4 3 2 1 1 1 1 2 3 3 4 5 6 7 7 8 9 9 9 9 10 10 10 11 11 11 11 11 11 12 12 13 14 14 14 14 14 14 15 15 16 16 17 16 15 15 15 14 14 14 14 14 14 14 14 14 15 14 15 16 16 17 17 17 17 17 17 17 18 18 17 17 16 15 15 15
9 8 8 7 7 6 5 4 4 3 2 2 1 1 2 2 3 4 4 5 6 6 7 7 7 8 8 8 8 9 9 10 11 11 11 11 11 11 12 13 13 14 15 15 14 14 15 15 16 17 17 17 17 17 16 16 15 15 14 14 14 14 14 14 15 14 14 15 15 16 16 17 17 17 17 18 17 18 17 17 17 16 15 15 14
8 7 6 6 5 4 4 3 3 2 2 2 2 2 2 3 4 4 5 5 5 6 6 7 7 7 8 8 8 9 10 11 11 12 12 12 12 12 12 13 14 14 15 15 15 15 16 16 17 17 18 18 18 18 17 17 16 15 14 14 14 14 15 15 14 14 15 15 16 16 16 17 17 18 18 18 18 18 18 17 16 16 14 14 13
6 6 5 5 4 4 3 3 3 2 2 2 2 3 3 3 4 4 4 5 5 5 6 7 7 8 8 9 10 11 11 12 12 12 12 12 12 12 13 13 14 15 15 16 16 17 17 17 17 17 18 18 18 17 16 16 15 15 14 14 14 15 15 15 15 15 15 16 16 16 16 17 17 17 17 17 16 16 16 15 14 14 13 13 13
Wind_Direction
201 202 202 201 201 200 200 200 199 197 195 193 192 192 192 191 189 188 187 186 185 184 183 183 186 189 188 185 180 175 174 173 174 176 176 174 174 176 183 188 197 206 206 205 201 201 207 211 216 218 220 228 238 243 245 246 249 250 251 260 266 268 270 260 254 277 293 296 296 304 314 321 327 334 335 335 338 339 342 344 345 346 346 346 345
201 202 201 201 202 202 201 201 200 198 196 195 194 194 193 192 191 190 190 189 188 186 185 186 189 191 191 188 184 181 182 181 180 181 180 179 180 185 192 197 204 208 209 211 209 210 217 221 222 224 226 236 244 246 248 249 249 252 255 258 264 266 268 271 269 278 291 296 300 308 317 325 328 333 336 336 337 338 340 342 343 344 343 342 340
203 202 202 202 202 202 202 201 200 199 198 197 196 195 194 193 193 193 192 191 191 189 189 190 191 193 193 190 188 187 188 188 186 185 184 185 188 194 199 202 208 212 213 215 218 221 225 226 226 229 234 241 246 247 249 251 251 254 257 257 260 262 267 274 275 276 289 298 305 312 320 326 329 332 336 337 337 337 337 338 340 340 338 336 335
203 202 201 201 202 202 202 201 201 200 199 199 198 196 195 194 195 195 195 194 193 192 193 193 194 195 195 193 192 192 193 194 192 190 189 190 195 201 206 209 212 217 220 223 228 230 230 231 233 236 240 242 246 248 249 251 253 255 258 259 260 263 268 272 274 277 286 295 303 311 320 326 328 332 337 336 334 334 334 335 337 334 332 332 333
202 201 201 200 201 201 201 201 201 200 200 200 199 197 196 197 197 197 197 197 196 195 195 196 198 198 197 196 195 196 198 199 197 195 193 194 200 206 212 216 219 222 227 232 235 235 236 237 239 243 245 245 246 249 250 251 254 256 258 260 261 266 270 272 275 279 281 290 301 311 319 324 327 332 338 336 332 332 333 332 330 328 328 331 332
202 201 200 200 200 200 201 201 201 201 201 200 200 199 199 199 199 200 200 199 199 199 198 199 200 200 200 199 199 200 201 202 202 201 198 198 203 210 215 220 223 227 232 237 239 241 243 243 245 247 249 250 250 251 252 253 255 257 259 261 263 266 269 272 276 280 283 290 300 308 316 323 327 329 333 333 330 331 331 328 325 326 328 330 330
200 200 200 199 200 200 201 201 201 201 201 202 202 202 201 202 202 202 202 202 202 202 201 202 202 202 203 202 202 203 204 205 205 204 202 203 208 214 219 222 226 230 236 240 242 245 246 246 249 251 252 253 254 253 255 256 257 260 261 261 262 265 268 272 275 277 283 291 297 306 315 321 324 322 321 326 328 327 329 327 325 325 327 328 328
199 198 199 199 200 201 201 201 202 202 203 204 204 204 204 204 205 204 204 204 205 205 204 204 204 205 206 206 205 206 207 209 209 206 205 207 211 218 224 227 231 235 239 242 243 245 247 248 249 251 253 254 254 254 256 258 260 261 261 261 262 263 266 270 273 276 281 288 296 306 313 316 317 315 316 324 327 325 326 323 318 318 322 323 324
197 197 198 199 201 201 200 201 202 203 205 206 206 207 206 206 206 206 206 207 208 208 207 206 206 207 209 209 209 210 211 213 212 209 208 209 214 223 228 231 236 240 242 244 244 245 246 247 248 250 251 252 253 254 255 258 260 260 260 261 261 263 267 268 269 274 280 286 295 305 309 307 309 312 315 320 321 318 321 319 311 311 317 318 320
197 197 198 200 201 201 200 201 202 203 205 206 207 207 207 207 207 207 208 209 209 210 209 208 209 210 211 211 211 212 214 215 215 213 213 213 220 230 234 237 241 243 244 244 245 245 245 246 247 248 250 251 251 254 256 257 259 260 261 260 260 262 265 265 268 273 279 284 291 297 297 296 300 307 309 310 311 314 317 317 312 314 319 319 321
197 198 200 200 201 200 200 201 202 203 205 206 206 206 207 207 207 208 209 210 211 212 211 210 211 212 213 214 214 215 216 217 216 215 214 216 224 235 241 244 246 246 247 246 245 247 247 247 248 248 249 251 252 255 257 256 256 258 260 260 263 265 264 264 268 270 273 280 285 287 284 285 296 304 302 302 309 313 312 310 314 316 318 319 318
199 200 200 200 200 201 201 201 201 203 204 204 205 206 206 206 206 208 209 211 212 213 213 213 213 214 216 217 217 218 219 219 218 216 215 218 229 238 243 246 248 248 249 248 248 248 248 249 249 248 248 251 254 256 255 252 250 249 251 253 255 257 258 262 266 266 267 272 276 276 274 281 292 296 296 302 308 307 302 306 312 309 306 306 302
201 201 200 200 200 201 201 201 201 202 202 203 205 206 206 206 207 208 210 211 213 214 214 215 216 216 218 219 220 221 221 220 219 216 216 223 233 241 244 247 248 249 250 250 249 249 250 250 250 250 251 252 255 256 254 253 250 249 251 252 250 247 248 251 254 258 263 267 269 270 271 280 287 287 292 301 302 299 300 306 308 301 297 296 292
201 200 200 200 200 199 200 200 200 200 201 203 204 205 206 206 207 208 210 211 213 214 216 217 217 218 220 221 222 223 223 222 219 217 219 228 237 243 245 247 249 250 251 251 251 251 251 252 252 253 255 256 257 258 257 255 254 254 254 255 255 253 250 248 245 244 248 252 259 265 271 278 280 283 292 294 288 293 302 306 306 300 294 292 291
199 200 199 199 199 198 199 199 199 200 202 203 203 204 205 206 207 209 210 212 214 216 217 218 219 220 222 223 224 224 225 223 220 218 224 233 240 243 245 246 247 249 249 250 251 252 253 254 254 255 256 258 259 259 259 258 257 256 256 256 258 257 254 252 247 243 244 248 255 264 272 276 277 283 292 287 283 295 302 301 301 298 295 295 296
199 200 200 199 198 199 198 198 199 200 200 201 201 203 205 207 209 210 212 214 216 218 219 221 222 223 223 223 224 225 225 222 219 221 230 239 241 243 245 246 246 247 248 249 251 253 254 255 255 255 257 258 258 258 259 260 258 257 257 258 259 258 256 253 248 245 249 255 260 265 271 274 275 281 288 286 288 299 302 300 299 297 297 300 301
199 199 200 199 199 199 199 198 198 198 198 200 201 203 205 207 209 212 214 216 218 220 222 223 224 224 224 224 225 225 225 221 218 225 238 244 242 240 243 245 246 246 247 248 250 253 255 256 255 256 258 258 257 256 255 257 258 258 259 259 259 259 258 255 250 246 248 252 255 259 266 269 268 272 281 286 289 297 301 298 298 298 298 300 301
199 198 200 201 200 200 200 199 198 197 199 201 203 205 208 210 213 216 218 219 221 223 224 224 224 225 224 225 226 227 226 222 220 230 244 248 243 239 241 244 246 247 248 249 251 254 255 256 255 255 257 258 258 255 251 251 255 257 259 259 258 259 261 260 256 251 250 249 247 250 261 266 265 270 281 285 285 290 294 294 295 294 291 288 290
199 199 200 201 200 200 201 201 201 201 203 206 208 211 214 216 217 219 220 221 223 223 224 223 224 224 225 227 228 230 229 224 224 234 246 248 242 237 239 242 245 247 249 250 252 254 256 257 257 256 257 259 259 256 250 247 250 255 257 255 254 259 263 262 257 255 256 252 247 251 262 265 266 273 282 284 284 288 293 292 290 286 281 279 283
200 200 201 200 201 202 203 204 205 207 209 211 213 215 216 217 217 219 220 222 223 224 224 225 226 227 228 229 230 231 230 227 229 237 245 245 241 236 237 241 244 247 250 250 251 254 256 258 259 259 259 260 261 260 254 248 249 254 253 248 250 258 264 262 256 257 259 254 251 258 263 263 266 277 286 289 290 293 295 291 285 280 276 276 278
199 200 201 201 202 204 205 207 209 211 213 214 215 216 217 218 219 220 222 222 222 223 226 227 229 230 230 231 232 232 231 230 233 239 244 245 243 238 237 241 244 246 249 251 252 254 256 258 260 261 261 261 261 261 258 253 249 250 251 251 255 261 264 263 260 257 253 251 254 259 259 258 267 283 294 298 296 295 292 286 282 279 275 273 276
198 199 200 201 203 205 207 210 212 213 214 215 215 217 219 220 221 221 222 222 222 224 226 228 231 232 233 234 235 235 234 234 237 243 247 248 246 242 240 243 246 247 249 252 254 255 257 259 261 262 263 263 262 262 261 256 247 245 249 254 257 258 256 259 260 253 246 247 251 252 252 258 273 288 299 302 299 294 290 284 281 282 278 273 273
197 198 200 201 204 207 209 211 213 214 215 216 217 218 219 218 220 221 222 223 223 225 227 229 231 235 237 239 241 241 240 240 242 247 252 253 250 245 242 244 247 248 250 253 255 257 259 261 262 263 264 265 265 266 264 257 249 246 248 249 250 251 252 255 254 248 243 244 245 246 251 262 277 291 300 303 300 293 289 287 287 287 285 281 277
195 196 199 201 205 208 210 212 214 214 216 217 216 217 218 217 219 220 222 223 224 226 228 230 232 236 240 243 245 246 246 246 248 252 257 258 255 250 246 245 245 248 253 257 258 259 261 263 265 266 266 267 268 269 267 261 254 250 249 247 247 248 249 251 250 245 241 240 240 246 256 267 280 293 300 302 298 293 290 290 291 291 290 287 284
191 194 197 201 204 206 208 211 213 215 217 217 216 216 217 216 217 219 221 222 224 226 228 230 233 237 241 246 249 250 251 253 254 257 260 262 260 256 252 250 248 247 251 257 261 263 265 267 268 269 269 269 269 268 265 261 255 252 249 247 246 246 246 249 249 243 238 237 240 250 262 273 286 296 301 300 297 294 293 292 291 292 291 288 286
187 191 195 199 201 204 205 207 211 214 216 218 219 219 219 218 217 219 220 222 224 227 229 232 234 238 242 247 251 253 254 256 259 262 263 264 263 260 257 256 254 251 251 253 257 262 267 270 270 270 269 268 266 264 262 261 258 255 252 247 244 244 245 247 246 241 237 239 247 258 270 281 291 298 301 301 298 296 295 294 294 294 292 290 290
185 188 193 196 198 202 204 205 208 211 213 215 217 219 220 221 220 220 221 222 223 226 229 231 234 237 242 248 252 255 258 259 261 264 266 266 267 265 263 262 260 258 256 256 256 257 261 264 265 266 266 264 263 262 261 260 258 255 251 243 240 242 246 248 248 244 242 247 256 265 274 285 293 299 302 300 297 296 295 295 296 297 296 295 295
182 185 188 193 196 200 203 205 206 208 210 213 214 216 218 220 221 224 227 227 227 228 230 233 236 240 244 250 254 258 261 263 265 269 271 272 274 273 271 269 267 264 263 263 263 262 260 259 259 260 259 257 256 254 251 249 250 250 247 241 238 241 245 247 246 245 248 254 260 267 276 284 291 296 298 297 296 296 295 294 295 298 300 300 298
178 181 185 191 194 197 201 204 206 208 210 212 215 218 221 225 228 232 236 237 238 239 240 243 247 250 252 255 258 261 265 270 274 278 280 279 279 277 275 274 273 271 270 270 269 266 262 257 255 253 252 250 250 248 246 243 244 245 245 242 241 242 242 241 242 246 251 256 261 267 275 281 286 290 293 295 295 294 293 292 294 297 300 300 298
175 179 184 189 191 194 198 201 205 208 211 212 214 217 222 228 233 237 240 242 244 246 248 252 256 258 260 262 263 264 269 276 280 282 282 283 283 282 281 279 278 276 274 272 267 262 258 255 253 250 248 248 248 248 247 245 244 245 244 243 243 243 242 243 246 252 256 259 263 268 271 275 281 288 292 293 293 292 290 291 293 294 296 299 300
171 176 182 187 190 194 198 200 204 208 212 215 217 218 221 227 232 237 241 243 246 248 250 254 258 260 263 266 268 269 272 275 277 279 281 281 280 278 276 274 272 271 270 266 261 257 254 254 255 253 250 250 250 250 250 250 249 248 247 248 248 248 249 252 256 259 261 263 265 267 269 276 285 292 294 293 292 292 291 291 292 292 295 299 301
171 174 180 186 189 195 199 202 206 209 212 216 219 221 223 227 232 238 242 246 250 253 255 258 260 262 264 268 270 273 275 276 278 279 277 273 269 266 265 264 263 263 261 257 255 255 254 255 258 260 257 254 253 253 252 251 252 252 252 254 256 258 259 261 263 264 266 267 266 265 270 282 291 294 294 293 291 291 291 291 291 291 296 301 303
168 171 179 185 189 195 201 205 209 212 215 219 222 224 227 230 234 239 244 248 252 255 256 258 260 260 262 264 266 270 276 280 282 282 276 267 264 264 265 264 262 261 258 253 252 253 254 255 258 261 260 258 257 256 254 253 254 256 256 257 258 260 262 264 267 269 269 267 265 266 276 288 294 294 293 291 289 289 289 289 289 291 296 302 305
167 170 178 185 190 196 202 206 211 215 219 223 227 230 233 237 241 244 245 244 247 249 250 252 254 256 259 262 262 265 269 272 274 276 273 265 260 262 265 264 260 255 252 251 250 250 250 251 254 255 256 257 257 256 255 255 256 256 256 256 256 258 263 267 270 272 270 265 265 273 284 292 295 294 292 288 286 285 285 285 288 293 298 301 303
173 172 175 182 188 193 199 203 209 215 219 224 230 234 238 242 245 247 247 248 250 254 256 256 256 255 256 258 260 264 269 269 268 271 269 262 256 255 258 258 252 245 243 246 250 251 249 247 249 251 252 253 254 255 255 255 255 254 254 256 258 261 267 275 278 276 270 265 269 280 289 293 294 291 287 285 282 280 281 284 288 294 298 300 301
173 173 173 178 184 187 193 199 205 213 219 224 229 234 239 242 245 249 253 257 262 267 271 272 268 261 257 256 257 260 266 272 271 266 262 259 254 248 246 246 245 243 241 243 246 250 252 253 254 255 252 249 250 253 254 255 257 257 256 259 264 269 274 277 276 271 267 268 275 285 290 290 290 287 282 280 279 277 280 287 292 294 297 299 298
165 167 169 174 179 184 189 194 199 207 214 221 226 232 239 246 251 257 262 267 272 277 282 285 283 276 269 267 264 260 258 257 255 254 257 260 257 249 244 243 243 244 244 243 241 242 247 254 259 261 261 258 254 254 256 258 261 262 262 264 268 273 276 275 270 268 270 274 281 288 289 288 287 284 278 277 278 279 284 289 292 293 295 294 292
163 167 170 174 179 185 188 192 200 209 218 226 235 243 251 255 260 266 272 276 280 285 289 294 295 293 288 282 275 268 261 252 247 252 259 263 262 257 253 251 251 250 249 249 248 246 248 254 260 265 268 270 270 269 269 268 268 268 268 270 273 275 275 273 271 272 276 281 285 287 287 285 283 279 275 275 278 282 286 288 289 290 292 292 292
164 166 169 171 175 178 181 189 200 212 229 243 251 259 265 270 275 280 282 284 287 292 296 299 302 304 301 291 279 275 271 260 253 255 260 262 263 265 266 267 268 268 266 266 267 268 269 270 273 275 277 278 278 278 277 277 276 276 274 274 276 276 274 273 275 277 280 284 286 286 285 283 281 278 276 277 279 282 285 286 287 290 292 294 295
157 158 158 158 160 159 160 169 178 186 210 238 256 268 278 287 290 291 292 294 296 300 302 303 306 308 304 296 289 285 283 277 269 265 264 265 266 268 270 273 276 278 281 281 281 281 281 280 280 281 281 282 281 281 280 278 277 276 276 275 276 276 275 275 277 280 282 285 287 286 282 281 281 279 277 278 281 283 284 287 290 291 292 292 293
150 148 142 136 136 134 130 130 128 126 133 136 131 294 302 306 297 296 302 302 301 303 302 302 305 303 297 303 313 304 292 287 284 279 275 275 275 274 276 280 282 284 286 287 287 286 286 285 285 285 284 283 281 277 275 275 273 273 275 275 274 274 275 277 280 284 286 285 283 281 279 278 279 278 279 282 284 285 286 288 290 291 290 290 291
142 140 133 128 127 120 114 113 109 101 102 108 107 129 166 227 273 283 293 295 295 300 299 296 300 303 299 304 310 289 277 278 281 283 283 283 281 279 279 281 284 286 288 289 289 288 288 287 286 285 283 281 278 274 271 272 272 272 273 274 275 277 280 283 285 284 281 278 277 277 277 279 280 281 283 285 286 286 287 288 289 289 290 290 293
139 135 128 125 124 118 112 111 111 113 122 129 130 142 161 190 237 267 291 295 294 299 302 302 305 305 293 274 266 266 268 272 276 280 283 284 283 284 284 284 285 288 289 288 287 286 285 285 284 282 280 277 273 273 272 270 270 271 273 276 279 282 283 283 283 280 278 277 277 277 277 279 280 282 284 285 286 286 287 287 288 289 289 291 293
133 130 126 124 120 115 113 116 119 121 125 125 124 127 129 133 243 276 298 301 301 306 308 307 306 301 290 278 274 275 279 281 282 284 285 284 284 284 284 284 285 285 285 286 285 284 284 283 281 279 279 276 273 273 272 270 270 273 275 277 278 278 279 281 283 283 280 277 277 277 279 280 281 282 284 285 286 286 286 286 287 289 289 290 292
128 126 125 122 118 116 116 115 115 116 117 115 112 108 101 74 341 317 311 305 305 308 306 303 300 297 292 289 288 288 289 290 290 290 288 285 285 285 283 282 283 283 283 284 284 284 284 284 283 282 282 280 278 276 275 273 273 273 273 273 273 275 278 281 282 280 277 276 278 280 280 281 282 282 284 285 285 285 286 286 287 287 288 289 289
126 126 124 122 119 118 116 114 113 111 109 108 108 104 93 51 333 318 311 307 304 301 298 297 297 296 296 298 298 298 298 296 293 291 290 288 287 285 283 281 281 281 282 282 282 283 284 284 285 286 286 283 282 280 277 275 273 271 270 271 272 274 277 278 277 276 276 276 278 279 279 280 282 283 284 285 285 284 284 285 285 285 286 287 288
126 124 122 121 119 117 115 115 114 112 112 115 120 127 130 298 303 302 300 301 302 299 297 298 299 300 302 304 302 300 299 296 292 290 289 288 287 285 283 282 282 281 282 282 281 282 284 284 285 286 286 284 283 281 278 275 273 272 271 272 272 274 276 276 274 274 275 275 276 278 279 281 283 283 283 285 284 283 283 284 284 285 286 286 287
125 122 120 120 119 119 120 122 122 127 138 148 158 188 241 273 288 296 297 297 298 298 299 302 303 303 303 303 301 298 295 291 289 288 287 287 286 284 282 282 282 282 282 284 283 283 284 284 283 283 283 283 282 281 279 277 275 274 273 274 274 275 275 274 272 272 273 273 275 277 278 280 282 282 283 283 282 281 283 283 283 284 285 286 286
124 122 122 123 124 126 132 137 144 157 168 182 210 240 264 280 287 290 293 294 296 299 301 302 303 302 300 296 293 291 288 286 286 286 286 286 287 287 284 283 284 284 285 285 285 284 283 282 281 281 282 282 283 283 282 281 279 277 276 275 274 274 273 272 272 273 274 275 276 278 279 281 282 281 281 281 281 280 280 280 281 283 284 282 283
126 125 127 131 135 140 147 154 169 186 197 214 240 256 270 279 282 286 290 293 296 298 299 297 295 291 289 287 285 284 284 284 284 285 286 287 288 288 288 287 287 286 286 286 285 284 283 281 281 281 282 282 283 284 283 282 281 279 277 275 274 273 273 273 274 276 276 276 277 277 278 279 280 279 279 280 279 278 279 279 280 282 281 279 280
132 133 137 142 146 153 166 176 188 202 219 236 253 263 270 274 279 285 290 293 295 293 288 287 287 284 283 285 285 284 284 285 285 286 288 289 288 288 288 287 287 286 286 286 286 285 284 283 282 281 281 281 281 281 280 280 279 278 277 276 274 274 274 275 276 277 276 275 276 276 276 277 278 278 279 279 278 276 277 278 278 277 278 279 282